BEZ313 TUPJ-TFFG

Flight info

Callsign BEZ313
Flight time 0h 35m
Altitude 5000
Route PJM
Aircraft C208/L-VGD/C

Departure

Time 2026-04-27 02:31
Airport Terrance B. Lettsome International Airport (TUPJ)

Arrival

Time 2026-04-27 03:06
Airport Grand Case-l'Espérance Airport (TFFG)
Time Latitude Longitude Altitude Speed Heading
2026-04-27 02:23 18.44595 -64.53741 15 ft 0 kts 237°
2026-04-27 02:26 18.44588 -64.53754 16 ft 8 kts 260°
2026-04-27 02:27 18.44638 -64.53806 15 ft 15 kts 278°
2026-04-27 02:27 18.44594 -64.53902 16 ft 14 kts 239°
2026-04-27 02:27 18.44540 -64.53996 17 ft 14 kts 240°
2026-04-27 02:27 18.44515 -64.54082 18 ft 11 kts 289°
2026-04-27 02:28 18.44542 -64.54166 18 ft 16 kts 264°
2026-04-27 02:28 18.44475 -64.54308 20 ft 24 kts 243°
2026-04-27 02:28 18.44396 -64.54451 21 ft 20 kts 234°
2026-04-27 02:28 18.44295 -64.54511 21 ft 15 kts 194°
2026-04-27 02:29 18.44233 -64.54579 21 ft 12 kts 240°
2026-04-27 02:29 18.44225 -64.54611 21 ft 0 kts 269°
2026-04-27 02:29 18.44225 -64.54638 20 ft 9 kts 276°
2026-04-27 02:30 18.44244 -64.54721 18 ft 13 kts 342°
2026-04-27 02:30 18.44317 -64.54608 20 ft 41 kts 60°
2026-04-27 02:30 18.44562 -64.54165 48 ft 89 kts 59°
2026-04-27 02:30 18.44885 -64.53632 351 ft 86 kts 56°
2026-04-27 02:31 18.45083 -64.53028 575 ft 91 kts 82°
2026-04-27 02:31 18.45158 -64.52349 766 ft 99 kts 90°
2026-04-27 02:31 18.45081 -64.51633 1009 ft 100 kts 102°
2026-04-27 02:31 18.44932 -64.50912 1247 ft 102 kts 105°
2026-04-27 02:32 18.44761 -64.50182 1487 ft 104 kts 105°
2026-04-27 02:32 18.44588 -64.49441 1726 ft 105 kts 105°
2026-04-27 02:32 18.44415 -64.48689 1967 ft 105 kts 105°
2026-04-27 02:32 18.44245 -64.47947 2204 ft 106 kts 105°
2026-04-27 02:33 18.44067 -64.47166 2406 ft 111 kts 105°
2026-04-27 02:33 18.43884 -64.46358 2602 ft 116 kts 106°
2026-04-27 02:33 18.43698 -64.45521 2794 ft 119 kts 105°
2026-04-27 02:33 18.43501 -64.44666 2985 ft 122 kts 105°
2026-04-27 02:34 18.43300 -64.43788 3179 ft 124 kts 105°
2026-04-27 02:34 18.43094 -64.42899 3370 ft 125 kts 105°
2026-04-27 02:34 18.42882 -64.42004 3561 ft 126 kts 105°
2026-04-27 02:34 18.42672 -64.41112 3750 ft 126 kts 106°
2026-04-27 02:35 18.42458 -64.40211 3942 ft 127 kts 105°
2026-04-27 02:35 18.42243 -64.39310 4135 ft 127 kts 106°
2026-04-27 02:35 18.42029 -64.38405 4325 ft 127 kts 105°
2026-04-27 02:35 18.41812 -64.37502 4518 ft 127 kts 105°
2026-04-27 02:36 18.41597 -64.36604 4706 ft 127 kts 105°
2026-04-27 02:36 18.41379 -64.35696 4899 ft 127 kts 106°
2026-04-27 02:36 18.41158 -64.34781 4995 ft 135 kts 105°
2026-04-27 02:36 18.40916 -64.33779 5005 ft 146 kts 106°
2026-04-27 02:37 18.40660 -64.32715 5002 ft 154 kts 105°
2026-04-27 02:37 18.40387 -64.31610 4997 ft 156 kts 106°
2026-04-27 02:37 18.40117 -64.30506 4996 ft 155 kts 106°
2026-04-27 02:37 18.39850 -64.29396 4997 ft 155 kts 106°
2026-04-27 02:38 18.39582 -64.28301 4999 ft 155 kts 105°
2026-04-27 02:38 18.39311 -64.27199 4999 ft 155 kts 106°
2026-04-27 02:38 18.39042 -64.26099 4998 ft 155 kts 106°
2026-04-27 02:38 18.38775 -64.24991 4997 ft 155 kts 106°
2026-04-27 02:39 18.38510 -64.23898 4995 ft 155 kts 105°
2026-04-27 02:39 18.38240 -64.22799 4993 ft 155 kts 106°
2026-04-27 02:39 18.37966 -64.21690 4993 ft 156 kts 106°
2026-04-27 02:39 18.37693 -64.20592 4995 ft 155 kts 106°
2026-04-27 02:40 18.37421 -64.19486 4992 ft 156 kts 105°
2026-04-27 02:40 18.37148 -64.18388 4992 ft 155 kts 106°
2026-04-27 02:40 18.36876 -64.17277 4992 ft 155 kts 106°
2026-04-27 02:40 18.36615 -64.16178 4991 ft 155 kts 106°
2026-04-27 02:41 18.36350 -64.15089 4995 ft 154 kts 106°
2026-04-27 02:41 18.36086 -64.13990 4992 ft 154 kts 105°
2026-04-27 02:41 18.35820 -64.12896 4990 ft 154 kts 106°
2026-04-27 02:41 18.35557 -64.11803 4990 ft 154 kts 106°
2026-04-27 02:42 18.35296 -64.10710 4988 ft 154 kts 105°
2026-04-27 02:42 18.35031 -64.09614 4989 ft 154 kts 105°
2026-04-27 02:42 18.34764 -64.08516 4991 ft 154 kts 105°
2026-04-27 02:42 18.34501 -64.07427 4989 ft 155 kts 105°
2026-04-27 02:43 18.34233 -64.06323 4990 ft 155 kts 105°
2026-04-27 02:43 18.33958 -64.05210 4989 ft 155 kts 105°
2026-04-27 02:43 18.33684 -64.04110 4990 ft 155 kts 105°
2026-04-27 02:43 18.33409 -64.03016 4991 ft 155 kts 106°
2026-04-27 02:44 18.33134 -64.01924 4991 ft 155 kts 106°
2026-04-27 02:44 18.32858 -64.00826 4990 ft 154 kts 105°
2026-04-27 02:44 18.32587 -63.99732 4990 ft 154 kts 106°
2026-04-27 02:44 18.32320 -63.98631 4990 ft 154 kts 106°
2026-04-27 02:45 18.32055 -63.97544 4990 ft 154 kts 105°
2026-04-27 02:45 18.31790 -63.96454 4989 ft 154 kts 105°
2026-04-27 02:45 18.31523 -63.95347 4991 ft 154 kts 106°
2026-04-27 02:45 18.31260 -63.94252 4989 ft 155 kts 105°
2026-04-27 02:46 18.30995 -63.93154 4991 ft 155 kts 106°
2026-04-27 02:46 18.30729 -63.92055 4990 ft 155 kts 106°
2026-04-27 02:46 18.30460 -63.90955 4990 ft 155 kts 105°
2026-04-27 02:46 18.30192 -63.89858 4989 ft 155 kts 105°
2026-04-27 02:47 18.29927 -63.88761 4989 ft 155 kts 105°
2026-04-27 02:47 18.29656 -63.87663 4988 ft 155 kts 105°
2026-04-27 02:47 18.29387 -63.86571 4990 ft 155 kts 106°
2026-04-27 02:47 18.29120 -63.85473 4989 ft 154 kts 105°
2026-04-27 02:48 18.28855 -63.84379 4988 ft 154 kts 105°
2026-04-27 02:48 18.28585 -63.83275 4989 ft 154 kts 105°
2026-04-27 02:48 18.28325 -63.82188 4988 ft 153 kts 106°
2026-04-27 02:48 18.28064 -63.81106 4989 ft 153 kts 106°
2026-04-27 02:49 18.27807 -63.80012 4989 ft 154 kts 105°
2026-04-27 02:49 18.27550 -63.78920 4989 ft 153 kts 105°
2026-04-27 02:49 18.27292 -63.77830 4989 ft 154 kts 105°
2026-04-27 02:49 18.27030 -63.76732 4989 ft 154 kts 105°
2026-04-27 02:50 18.26765 -63.75626 4989 ft 155 kts 105°
2026-04-27 02:50 18.26504 -63.74532 4989 ft 155 kts 106°
2026-04-27 02:50 18.26238 -63.73434 4988 ft 155 kts 105°
2026-04-27 02:50 18.25976 -63.72337 4990 ft 154 kts 105°
2026-04-27 02:51 18.25716 -63.71247 4990 ft 154 kts 105°
2026-04-27 02:51 18.25457 -63.70152 4990 ft 154 kts 106°
2026-04-27 02:51 18.25198 -63.69063 4988 ft 154 kts 105°
2026-04-27 02:51 18.24934 -63.67965 4990 ft 154 kts 105°
2026-04-27 02:52 18.24674 -63.66870 4988 ft 154 kts 106°
2026-04-27 02:52 18.24410 -63.65786 4987 ft 153 kts 108°
2026-04-27 02:52 18.24081 -63.64721 4989 ft 154 kts 109°
2026-04-27 02:52 18.23751 -63.63648 4989 ft 154 kts 109°
2026-04-27 02:53 18.23423 -63.62575 4989 ft 154 kts 109°
2026-04-27 02:53 18.23090 -63.61501 4988 ft 155 kts 109°
2026-04-27 02:53 18.22750 -63.60416 4990 ft 155 kts 110°
2026-04-27 02:53 18.22424 -63.59352 4989 ft 154 kts 109°
2026-04-27 02:54 18.22090 -63.58276 4988 ft 154 kts 109°
2026-04-27 02:54 18.21748 -63.57198 4989 ft 153 kts 109°
2026-04-27 02:54 18.21412 -63.56130 4988 ft 153 kts 109°
2026-04-27 02:54 18.21071 -63.55070 4989 ft 153 kts 110°
2026-04-27 02:55 18.20724 -63.53983 4890 ft 159 kts 109°
2026-04-27 02:55 18.20366 -63.52874 4771 ft 163 kts 109°
2026-04-27 02:55 18.20001 -63.51723 4650 ft 165 kts 109°
2026-04-27 02:55 18.19643 -63.50573 4528 ft 166 kts 110°
2026-04-27 02:56 18.19287 -63.49419 4406 ft 166 kts 110°
2026-04-27 02:56 18.18938 -63.48264 4284 ft 166 kts 109°
2026-04-27 02:56 18.18581 -63.47097 4161 ft 167 kts 110°
2026-04-27 02:56 18.18232 -63.45940 4037 ft 166 kts 109°
2026-04-27 02:57 18.17877 -63.44783 3914 ft 165 kts 109°
2026-04-27 02:57 18.17532 -63.43628 3791 ft 164 kts 109°
2026-04-27 02:57 18.17193 -63.42495 3668 ft 163 kts 109°
2026-04-27 02:57 18.16850 -63.41351 3545 ft 163 kts 109°
2026-04-27 02:58 18.16515 -63.40221 3422 ft 162 kts 109°
2026-04-27 02:58 18.16172 -63.39082 3297 ft 162 kts 109°
2026-04-27 02:58 18.15836 -63.37953 3173 ft 162 kts 109°
2026-04-27 02:58 18.15509 -63.36834 3051 ft 161 kts 109°
2026-04-27 02:59 18.15182 -63.35706 2926 ft 161 kts 109°
2026-04-27 02:59 18.14853 -63.34571 2804 ft 161 kts 110°
2026-04-27 02:59 18.14529 -63.33444 2683 ft 162 kts 110°
2026-04-27 02:59 18.14211 -63.32298 2564 ft 162 kts 109°
2026-04-27 03:00 18.13886 -63.31160 2442 ft 162 kts 109°
2026-04-27 03:00 18.13567 -63.30029 2324 ft 162 kts 109°
2026-04-27 03:00 18.13241 -63.28889 2204 ft 162 kts 109°
2026-04-27 03:00 18.12915 -63.27763 2084 ft 162 kts 110°
2026-04-27 03:01 18.12587 -63.26637 1961 ft 162 kts 109°
2026-04-27 03:01 18.12416 -63.25459 1843 ft 164 kts 93°
2026-04-27 03:01 18.12380 -63.24262 1725 ft 164 kts 96°
2026-04-27 03:01 18.12352 -63.23069 1606 ft 164 kts 95°
2026-04-27 03:02 18.12315 -63.21860 1485 ft 164 kts 95°
2026-04-27 03:02 18.12285 -63.20668 1366 ft 164 kts 94°
2026-04-27 03:02 18.12253 -63.19457 1244 ft 165 kts 95°
2026-04-27 03:02 18.12224 -63.18258 1125 ft 165 kts 94°
2026-04-27 03:03 18.12195 -63.17055 1025 ft 164 kts 95°
2026-04-27 03:03 18.12146 -63.14721 1008 ft 156 kts 95°
2026-04-27 03:03 18.12116 -63.13594 1009 ft 154 kts 94°
2026-04-27 03:04 18.12095 -63.12472 1009 ft 153 kts 95°
2026-04-27 03:04 18.12040 -63.11354 1008 ft 152 kts 102°
2026-04-27 03:04 18.11812 -63.10286 975 ft 149 kts 109°
2026-04-27 03:04 18.11492 -63.09338 896 ft 127 kts 115°
2026-04-27 03:05 18.11181 -63.08500 717 ft 117 kts 112°
2026-04-27 03:05 18.10942 -63.07760 628 ft 95 kts 112°
2026-04-27 03:05 18.10749 -63.07155 508 ft 83 kts 113°
2026-04-27 03:05 18.10549 -63.06574 363 ft 83 kts 110°
2026-04-27 03:06 18.10377 -63.06007 229 ft 81 kts 108°
2026-04-27 03:06 18.10216 -63.05456 101 ft 77 kts 110°
2026-04-27 03:06 18.10057 -63.04936 15 ft 63 kts 109°
2026-04-27 03:06 18.09967 -63.04637 15 ft 21 kts 114°
2026-04-27 03:07 18.09966 -63.04602 15 ft 7 kts 296°
2026-04-27 03:07 18.09980 -63.04695 15 ft 16 kts 294°
2026-04-27 03:07 18.10052 -63.04749 15 ft 11 kts 12°
2026-04-27 03:07 18.10088 -63.04759 15 ft 3 kts 299°
2026-04-27 03:08 18.10100 -63.04795 15 ft 5 kts 288°
2026-04-27 03:08 18.10134 -63.04813 15 ft 5 kts 358°
2026-04-27 03:08 18.10147 -63.04822 15 ft 0 kts 287°